Tracking 17694 objects as of 30-May-2016
HD Live streaming from Space Station
objects crossing your sky now

COSMOS 2378

Track COSMOS 2378 now!
10-day predictions
COSMOS 2378 is classified as:


NORAD ID: 26818
Int'l Code: 2001-023A
Perigee: 968.7 km
Apogee: 1,016.8 km
Inclination: 82.9 °
Period: 104.8 minutes
Semi major axis: 7363 km
RCS: 1.9621 m2 (large)
Launch date: June 8, 2001
Source: Commonwealth of Independent States (former USSR) (CIS)
Launch site: PLESETSK MISSILE AND SPACE COMPLEX (PKMTR)

Normally part of a six-satellite constellation.
Your satellite tracking list
Your tracking list is empty





NASA's NSSDC Master Catalog

Two Line Element Set (TLE):
1 26818U 01023A   16150.46256626  .00000057  00000-0  44250-4 0  9992
2 26818  82.9299  61.6851 0032692 184.5386 175.5498 13.73900672750841
Source of the keplerian elements: AFSPC

N2YO: 501